UAE57X EDDH-OMDB

Flight info

Callsign UAE57X
Flight time N/A
Altitude 35000
Route AMLUH2G AMLUH M852 DENIX DCT ZUCKA DCT ARMUT DCT LAMSI DCT LIDSI DCT RADLY DCT PODET DCT TAZ DCT PETAK DCT DIMIS DCT SALUN N705 MMA P751 DASUM Y234 FYM/N0485F370 M872 BDB Y214 RAPMA DCT KUVSO DCT KATIT DCT PEKEM M628 RIGIL G783 ELUDA/N0497F350 G783 ASPED Q308 KIPOK Q568 IMPED
Aircraft B77W/H-SDE1E2E3FGHIJ2J3J4J5M1RWXY/LB1D1

Departure

Time 2026-04-24 14:16
Airport Hamburg Helmut Schmidt Airport (EDDH)

Arrival

Time N/A
Airport Dubai International Airport (OMDB)
Time Latitude Longitude Altitude Speed Heading
2026-04-24 13:43 53.62944 10.00285 49 ft 0 kts 122°
2026-04-24 14:09 53.62944 10.00284 49 ft 1 kts 122°
2026-04-24 14:09 53.62957 10.00249 47 ft 4 kts 122°
2026-04-24 14:09 53.62972 10.00211 48 ft 4 kts 123°
2026-04-24 14:10 53.62985 10.00180 47 ft 4 kts 139°
2026-04-24 14:10 53.63001 10.00162 46 ft 4 kts 177°
2026-04-24 14:10 53.63020 10.00169 46 ft 4 kts 212°
2026-04-24 14:10 53.63042 10.00194 47 ft 4 kts 214°
2026-04-24 14:11 53.63051 10.00204 47 ft 0 kts 212°
2026-04-24 14:13 53.63045 10.00198 47 ft 5 kts 212°
2026-04-24 14:14 53.62973 10.00120 49 ft 15 kts 213°
2026-04-24 14:14 53.62908 10.00054 46 ft 10 kts 200°
2026-04-24 14:14 53.62823 9.99886 45 ft 7 kts 242°
2026-04-24 14:15 53.62811 9.99846 49 ft 4 kts 244°
2026-04-24 14:15 53.62819 9.99791 50 ft 7 kts 309°
2026-04-24 14:15 53.62912 9.99707 50 ft 30 kts 333°
2026-04-24 14:15 53.63410 9.99276 48 ft 132 kts 333°
2026-04-24 14:16 53.64523 9.98307 224 ft 215 kts 332°
2026-04-24 14:16 53.65871 9.97131 1612 ft 215 kts 332°
2026-04-24 14:16 53.67207 9.95932 2434 ft 227 kts 332°
2026-04-24 14:17 53.70320 9.94378 3573 ft 247 kts
2026-04-24 14:17 53.72050 9.94629 4223 ft 253 kts
2026-04-24 14:17 53.74727 9.98362 5018 ft 270 kts 73°
2026-04-24 14:18 53.74829 10.01511 5574 ft 272 kts 100°
2026-04-24 14:18 53.74190 10.04515 6302 ft 274 kts 119°
2026-04-24 14:18 53.73229 10.07316 7049 ft 278 kts 121°
2026-04-24 14:18 53.72200 10.10087 7832 ft 280 kts 122°
2026-04-24 14:19 53.71518 10.11940 8354 ft 282 kts 121°
2026-04-24 14:19 53.70182 10.15737 9342 ft 286 kts 120°
2026-04-24 14:19 53.69164 10.18624 10033 ft 287 kts 127°
2026-04-24 14:19 53.67648 10.20858 10445 ft 300 kts 154°
2026-04-24 14:20 53.65614 10.22009 10599 ft 319 kts 165°
2026-04-24 14:20 53.63388 10.22998 10801 ft 343 kts 166°
2026-04-24 14:20 53.60999 10.24056 11032 ft 365 kts 165°
2026-04-24 14:20 53.58506 10.25171 11646 ft 376 kts 165°
2026-04-24 14:21 53.55962 10.26320 12431 ft 382 kts 165°
2026-04-24 14:21 53.53386 10.27493 13293 ft 385 kts 165°
2026-04-24 14:21 53.50787 10.28684 14139 ft 389 kts 165°
2026-04-24 14:21 53.48160 10.29890 14935 ft 394 kts 165°
2026-04-24 14:22 53.45501 10.31108 15700 ft 399 kts 165°
2026-04-24 14:22 53.42811 10.32339 16465 ft 403 kts 165°
2026-04-24 14:22 53.37335 10.34808 17918 ft 412 kts 165°
2026-04-24 14:23 53.34554 10.36050 18621 ft 416 kts 165°
2026-04-24 14:23 53.31739 10.37306 19308 ft 420 kts 165°
2026-04-24 14:23 53.28902 10.38573 19976 ft 425 kts 165°
2026-04-24 14:23 53.26033 10.39853 20612 ft 429 kts 165°
2026-04-24 14:24 53.23135 10.41147 21235 ft 433 kts 165°
2026-04-24 14:24 53.20216 10.42448 21832 ft 437 kts 165°
2026-04-24 14:24 53.17265 10.43760 22427 ft 441 kts 165°
2026-04-24 14:24 53.14289 10.45082 22994 ft 444 kts 165°
2026-04-24 14:25 53.12297 10.45923 23361 ft 447 kts 168°
2026-04-24 14:25 53.08194 10.47247 24058 ft 452 kts 169°
2026-04-24 14:25 53.05088 10.48197 24562 ft 456 kts 170°
2026-04-24 14:25 53.01957 10.49147 25065 ft 459 kts 170°
2026-04-24 14:26 52.98808 10.50107 25559 ft 462 kts 169°
2026-04-24 14:26 52.95632 10.51080 26027 ft 465 kts 169°
2026-04-24 14:26 52.92436 10.52064 26490 ft 469 kts 169°
2026-04-24 14:26 52.89221 10.53056 26927 ft 472 kts 169°
2026-04-24 14:27 52.85983 10.54057 27346 ft 475 kts 169°
2026-04-24 14:27 52.82724 10.55063 27748 ft 478 kts 169°
2026-04-24 14:27 52.79489 10.56060 28126 ft 481 kts 169°
2026-04-24 14:27 52.76191 10.57076 28486 ft 484 kts 169°
2026-04-24 14:28 52.72874 10.58096 28838 ft 486 kts 169°
2026-04-24 14:28 52.69538 10.59119 29176 ft 489 kts 169°
2026-04-24 14:28 52.66189 10.60145 29498 ft 491 kts 169°
2026-04-24 14:28 52.62825 10.61174 29796 ft 493 kts 169°
2026-04-24 14:29 52.59445 10.62205 30094 ft 494 kts 169°
2026-04-24 14:29 52.56066 10.63235 30478 ft 494 kts 169°
2026-04-24 14:29 52.52693 10.64262 30905 ft 492 kts 169°
2026-04-24 14:29 52.49332 10.65283 31296 ft 491 kts 169°
2026-04-24 14:30 52.47066 10.65970 31546 ft 490 kts 169°
2026-04-24 14:30 52.42629 10.67314 31979 ft 490 kts 169°
2026-04-24 14:30 52.39276 10.68329 32325 ft 489 kts 169°
2026-04-24 14:30 52.35932 10.69339 32672 ft 488 kts 169°
2026-04-24 14:31 52.32595 10.70345 32996 ft 487 kts 169°
2026-04-24 14:31 52.29263 10.71349 33302 ft 487 kts 169°
2026-04-24 14:31 52.25933 10.72349 33600 ft 486 kts 169°
2026-04-24 14:31 52.22604 10.73348 33872 ft 486 kts 170°
2026-04-24 14:32 52.19277 10.74345 34120 ft 487 kts 170°
2026-04-24 14:32 52.15950 10.75340 34411 ft 485 kts 170°
2026-04-24 14:32 52.12632 10.76332 34743 ft 484 kts 170°
2026-04-24 14:32 52.09325 10.77318 34930 ft 485 kts 170°
2026-04-24 14:33 52.05993 10.78311 34968 ft 488 kts 170°
2026-04-24 14:33 51.99317 10.80295 34985 ft 486 kts 170°
2026-04-24 14:34 51.92706 10.82254 35001 ft 482 kts 170°
2026-04-24 14:34 51.86112 10.84202 34998 ft 481 kts 170°
2026-04-24 14:35 51.79522 10.86143 35002 ft 482 kts 170°
2026-04-24 14:35 51.72914 10.88085 35008 ft 484 kts 170°
2026-04-24 14:36 51.66370 10.90677 35005 ft 486 kts 161°
2026-04-24 14:36 51.60178 10.95054 35009 ft 487 kts 154°
2026-04-24 14:37 51.55100 10.99004 35002 ft 488 kts 154°
2026-04-24 14:37 51.48968 11.03727 34997 ft 488 kts 155°
2026-04-24 14:38 51.42833 11.08391 35002 ft 487 kts 155°
2026-04-24 14:38 51.36704 11.13018 35006 ft 486 kts 155°
2026-04-24 14:39 51.30595 11.17615 35007 ft 485 kts 155°
2026-04-24 14:39 51.24493 11.22195 35004 ft 484 kts 155°
2026-04-24 14:40 51.18402 11.26755 35000 ft 483 kts 155°
2026-04-24 14:40 51.12313 11.31301 35000 ft 483 kts 155°
2026-04-24 14:41 51.06226 11.35831 35002 ft 483 kts 155°
2026-04-24 14:41 51.00132 11.40353 35005 ft 484 kts 155°
2026-04-24 14:42 50.94028 11.44870 35005 ft 485 kts 155°
2026-04-24 14:42 50.87950 11.49354 35003 ft 485 kts 155°
2026-04-24 14:43 50.81780 11.53893 35002 ft 486 kts 155°
2026-04-24 14:43 50.75681 11.58367 35000 ft 486 kts 155°
2026-04-24 14:44 50.69542 11.62858 35005 ft 486 kts 155°
2026-04-24 14:44 50.63404 11.67334 35005 ft 486 kts 155°
2026-04-24 14:45 50.57262 11.71800 35004 ft 486 kts 155°
2026-04-24 14:45 50.51114 11.76257 35000 ft 487 kts 155°
2026-04-24 14:46 50.44962 11.80706 34999 ft 487 kts 155°
2026-04-24 14:46 50.38802 11.85147 35003 ft 487 kts 155°
2026-04-24 14:47 50.32644 11.89574 35001 ft 487 kts 155°
2026-04-24 14:47 50.26476 11.93995 35001 ft 487 kts 155°
2026-04-24 14:48 50.20312 11.98401 35005 ft 488 kts 155°
2026-04-24 14:48 50.14137 12.02803 35006 ft 488 kts 155°
2026-04-24 14:49 50.07964 12.07190 35002 ft 488 kts 155°
2026-04-24 14:49 50.01788 12.11566 35003 ft 488 kts 155°
2026-04-24 14:50 49.95612 12.15931 35001 ft 488 kts 156°
2026-04-24 14:50 49.89433 12.20286 35004 ft 487 kts 156°
2026-04-24 14:51 49.83299 12.24598 35001 ft 487 kts 156°
2026-04-24 14:51 49.77124 12.28927 35004 ft 487 kts 156°
2026-04-24 14:52 49.71128 12.33779 35005 ft 487 kts 147°
2026-04-24 14:52 49.65721 12.40083 35010 ft 487 kts 141°
2026-04-24 14:53 49.60415 12.46583 35005 ft 488 kts 142°
2026-04-24 14:53 49.55078 12.53048 34997 ft 488 kts 142°
2026-04-24 14:54 49.49724 12.59472 34998 ft 488 kts 142°
2026-04-24 14:54 49.44356 12.65881 35000 ft 489 kts 142°
2026-04-24 14:55 49.39893 12.71197 34997 ft 489 kts 142°
2026-04-24 14:55 49.33610 12.78665 35003 ft 489 kts 142°
2026-04-24 14:56 49.28230 12.85039 35011 ft 488 kts 142°
2026-04-24 14:56 49.22848 12.91398 35004 ft 489 kts 142°
2026-04-24 14:57 49.17465 12.97740 35004 ft 488 kts 142°
2026-04-24 14:57 49.12079 13.04068 35007 ft 489 kts 142°
2026-04-24 14:58 49.06684 13.10389 35004 ft 489 kts 142°
2026-04-24 14:58 49.01283 13.16699 35002 ft 489 kts 142°
2026-04-24 14:59 48.95882 13.22991 35001 ft 489 kts 143°
2026-04-24 14:59 48.90476 13.29273 35003 ft 489 kts 143°
2026-04-24 15:00 48.85069 13.35537 35006 ft 489 kts 143°
2026-04-24 15:00 48.79696 13.41746 34985 ft 488 kts 143°
2026-04-24 15:01 48.74292 13.47974 35001 ft 488 kts 143°
2026-04-24 15:01 48.68889 13.54184 35001 ft 487 kts 143°